Tracking 29777 objects as of 6-Oct-2024
HD Live streaming from Space Station
objects crossing your sky now

STARLINK-30903

Track STARLINK-30903 now!
10-day predictions
STARLINK-30903 is classified as:


NORAD ID: 58355
Int'l Code: 2023-177E
Perigee: 565.1 km
Apogee: 567.4 km
Inclination: 43.0 °
Period: 95.8 minutes
Semi major axis: 6937 km
RCS: Unknown
Launch date: November 18, 2023
Source: United States (US)
Launch site: AIR FORCE EASTERN TEST RANGE (AFETR)
Your satellite tracking list
Your tracking list is empty




NASA's NSSDC Master Catalog

Two Line Element Set (TLE):
1 58355U 23177E   24280.31673483  .00000568  00000-0  57128-4 0  9993
2 58355  43.0028 294.1441 0001600 258.5839 101.4824 15.02524818 50086
Source of the keplerian elements: AFSPC